�������l�o���
Date,Time,MP-1(��Sv/h),MP-2(��Sv/h),MP-3(��Sv/h),MP-4(��Sv/h),MP-5(��Sv/h),MP-6(��Sv/h),MP-7(��Sv/h),����,����(m/s),���J
2017/04/28,00:00,0.377,0.231,0.395,0.363,0.330,0.192,0.165,��쐼,1.3,��
2017/04/28,00:10,0.377,0.230,0.394,0.363,0.329,0.191,0.165,��,3.7,��
2017/04/28,00:20,0.378,0.230,0.394,0.363,0.328,0.191,0.165,��,3.3,��
2017/04/28,00:30,0.378,0.229,0.396,0.364,0.331,0.192,0.165,��쐼,4.4,��
2017/04/28,00:40,0.377,0.231,0.395,0.362,0.330,0.191,0.165,��,3.2,��
2017/04/28,00:50,0.377,0.232,0.395,0.363,0.328,0.191,0.164,��쐼,2.9,��
2017/04/28,01:00,0.377,0.231,0.394,0.364,0.330,0.192,0.165,��,2.1,��
2017/04/28,01:10,0.378,0.231,0.396,0.364,0.329,0.191,0.164,��,3.3,��
2017/04/28,01:20,0.377,0.230,0.392,0.363,0.328,0.191,0.165,��,2.6,��
2017/04/28,01:30,0.377,0.231,0.393,0.364,0.328,0.193,0.165,��,2.2,��
2017/04/28,01:40,0.378,0.232,0.395,0.363,0.330,0.192,0.164,��쐼,2.7,��
2017/04/28,01:50,0.378,0.231,0.395,0.362,0.328,0.192,0.165,��쐼,3.7,��
2017/04/28,02:00,0.378,0.231,0.394,0.363,0.330,0.192,0.166,��쐼,2.4,��
2017/04/28,02:10,0.377,0.231,0.394,0.364,0.329,0.191,0.165,��쐼,2.0,��
2017/04/28,02:20,0.377,0.229,0.396,0.364,0.329,0.191,0.164,��쐼,1.2,��
2017/04/28,02:30,0.377,0.231,0.395,0.363,0.327,0.191,0.164,-,CALM,��
2017/04/28,02:40,0.377,0.229,0.395,0.364,0.329,0.191,0.165,�k��,1.1,��
2017/04/28,02:50,0.377,0.231,0.395,0.364,0.329,0.191,0.165,�k��,3.0,��
2017/04/28,03:00,0.377,0.230,0.394,0.363,0.327,0.191,0.164,�k��,3.2,��
2017/04/28,03:10,0.377,0.230,0.398,0.363,0.330,0.190,0.164,�k��,3.1,��
2017/04/28,03:20,0.376,0.231,0.394,0.364,0.330,0.192,0.164,�k��,3.2,��
2017/04/28,03:30,0.377,0.231,0.395,0.364,0.328,0.191,0.165,���k��,3.8,��
2017/04/28,03:40,0.378,0.229,0.395,0.363,0.328,0.192,0.164,���k��,4.5,��
2017/04/28,03:50,0.377,0.230,0.396,0.363,0.329,0.192,0.164,���k��,6.8,��
2017/04/28,04:00,0.378,0.231,0.396,0.364,0.329,0.192,0.164,���k��,7.4,��
2017/04/28,04:10,0.378,0.230,0.395,0.363,0.328,0.192,0.164,���k��,9.0,��
2017/04/28,04:20,0.378,0.230,0.396,0.363,0.329,0.192,0.164,���k��,9.3,��
2017/04/28,04:30,0.377,0.230,0.396,0.364,0.331,0.191,0.164,���k��,10.3,��
2017/04/28,04:40,0.379,0.230,0.394,0.363,0.327,0.191,0.164,���k��,8.5,��
2017/04/28,04:50,0.376,0.230,0.394,0.361,0.328,0.192,0.165,���k��,8.0,��
2017/04/28,05:00,0.376,0.229,0.395,0.364,0.329,0.191,0.164,���k��,7.5,��
2017/04/28,05:10,0.378,0.231,0.393,0.365,0.328,0.191,0.164,���k��,8.1,��
2017/04/28,05:20,0.377,0.230,0.394,0.363,0.329,0.190,0.165,���k��,8.1,��
2017/04/28,05:30,0.376,0.229,0.395,0.364,0.330,0.192,0.164,��,7.7,��
2017/04/28,05:40,0.379,0.229,0.394,0.363,0.329,0.190,0.163,��,6.8,��
2017/04/28,05:50,0.377,0.229,0.395,0.361,0.329,0.191,0.164,��,6.2,��
2017/04/28,06:00,0.379,0.230,0.394,0.364,0.329,0.191,0.163,��,5.3,��
2017/04/28,06:10,0.376,0.229,0.392,0.363,0.329,0.190,0.163,��,5.5,��
2017/04/28,06:20,0.377,0.231,0.396,0.362,0.329,0.190,0.163,��,4.5,��
2017/04/28,06:30,0.378,0.229,0.394,0.364,0.328,0.192,0.164,��,2.5,��
2017/04/28,06:40,0.376,0.230,0.393,0.362,0.328,0.191,0.164,�k��,2.4,��
2017/04/28,06:50,0.380,0.230,0.396,0.365,0.328,0.191,0.162,�k��,2.8,��
2017/04/28,07:00,0.376,0.230,0.391,0.362,0.327,0.192,0.163,�k��,2.8,��
2017/04/28,07:10,0.377,0.229,0.394,0.361,0.330,0.190,0.163,�k��,3.1,��
2017/04/28,07:20,0.380,0.230,0.393,0.361,0.327,0.191,0.164,�k,1.9,��
2017/04/28,07:30,0.375,0.230,0.394,0.362,0.329,0.192,0.162,-,CALM,��
2017/04/28,07:40,0.378,0.230,0.392,0.362,0.327,0.191,0.164,��쐼,0.8,��
2017/04/28,07:50,0.376,0.230,0.393,0.363,0.328,0.193,0.163,-,CALM,��
2017/04/28,08:00,0.379,0.230,0.393,0.358,0.328,0.192,0.163,���k��,1.0,��
2017/04/28,08:10,0.375,0.230,0.394,0.364,0.330,0.191,0.164,���k��,4.3,��
2017/04/28,08:20,0.376,0.229,0.396,0.362,0.326,0.191,0.164,���k��,4.2,��
2017/04/28,08:30,0.378,0.231,0.395,0.359,0.330,0.190,0.164,��,4.7,��
2017/04/28,08:40,0.375,0.229,0.396,0.363,0.325,0.191,0.164,��,2.6,��
2017/04/28,08:50,0.379,0.231,0.393,0.361,0.331,0.191,0.162,��쓌,8.0,��
2017/04/28,09:00,0.375,0.229,0.396,0.360,0.329,0.191,0.164,��쓌,6.5,��
2017/04/28,09:10,0.379,0.231,0.392,0.365,0.330,0.190,0.164,��쓌,5.7,��
2017/04/28,09:20,0.376,0.229,0.396,0.362,0.328,0.192,0.165,��쓌,7.7,��
2017/04/28,09:30,0.377,0.229,0.394,0.366,0.328,0.191,0.164,��,7.5,��
2017/04/28,09:40,0.378,0.230,0.396,0.363,0.330,0.193,0.164,��,6.4,��
2017/04/28,09:50,0.376,0.229,0.395,0.363,0.328,0.191,0.164,��쓌,6.2,��
2017/04/28,10:00,0.379,0.230,0.396,0.364,0.330,0.191,0.163,��,6.4,��
2017/04/28,10:10,0.378,0.229,0.396,0.362,0.328,0.191,0.165,��,7.3,��
2017/04/28,10:20,0.376,0.231,0.395,0.366,0.330,0.192,0.163,��,5.7,��
2017/04/28,10:30,0.379,0.230,0.394,0.362,0.328,0.191,0.165,��,5.8,��
2017/04/28,10:40,0.377,0.231,0.395,0.363,0.329,0.192,0.164,��,5.0,��
2017/04/28,10:50,0.375,0.230,0.392,0.367,0.331,0.192,0.163,��,5.6,��
2017/04/28,11:00,0.378,0.231,0.397,0.361,0.328,0.191,0.164,��,5.9,��
2017/04/28,11:10,0.375,0.230,0.394,0.366,0.330,0.192,0.164,��,6.8,��
2017/04/28,11:20,0.376,0.230,0.395,0.365,0.328,0.191,0.165,��쓌,6.4,��
2017/04/28,11:30,0.379,0.232,0.395,0.363,0.328,0.192,0.166,��쓌,5.9,��
2017/04/28,11:40,0.376,0.230,0.393,0.366,0.332,0.190,0.164,��쓌,4.4,��
2017/04/28,11:50,0.377,0.230,0.396,0.361,0.328,0.192,0.166,�쓌,4.0,��
2017/04/28,12:00,0.379,0.231,0.394,0.366,0.332,0.191,0.165,�쓌,2.9,��
2017/04/28,12:10,0.373,0.231,0.393,0.364,0.327,0.192,0.165,��쓌,3.9,��
2017/04/28,12:20,0.381,0.231,0.396,0.362,0.329,0.191,0.165,��쓌,4.5,��
2017/04/28,12:30,0.378,0.232,0.392,0.366,0.330,0.191,0.166,��쓌,4.0,��
2017/04/28,12:40,0.375,0.231,0.393,0.363,0.327,0.193,0.165,��쓌,4.3,��
2017/04/28,12:50,0.380,0.232,0.397,0.365,0.331,0.191,0.164,��쓌,3.6,��
2017/04/28,13:00,0.377,0.231,0.393,0.366,0.329,0.193,0.165,��쓌,4.2,��
2017/04/28,13:10,0.376,0.231,0.393,0.364,0.326,0.192,0.166,��쓌,3.1,��
2017/04/28,13:20,0.379,0.232,0.397,0.366,0.329,0.191,0.164,��,4.8,��
2017/04/28,13:30,0.375,0.231,0.394,0.365,0.329,0.192,0.164,��,5.4,��
2017/04/28,13:40,0.379,0.232,0.393,0.363,0.328,0.190,0.163,��쓌,5.3,��
2017/04/28,13:50,0.379,0.230,0.396,0.368,0.332,0.193,0.165,��쓌,5.2,��
2017/04/28,14:00,0.377,0.232,0.395,0.363,0.327,0.191,0.165,��,4.1,��
2017/04/28,14:10,0.381,0.230,0.394,0.366,0.329,0.192,0.165,��,4.2,��
2017/04/28,14:20,0.376,0.231,0.397,0.365,0.329,0.191,0.165,��쓌,5.2,��
2017/04/28,14:30,0.379,0.232,0.394,0.364,0.327,0.191,0.164,��,5.2,��
2017/04/28,14:40,0.378,0.233,0.396,0.366,0.331,0.193,0.165,��,5.6,��
2017/04/28,14:50,0.376,0.230,0.399,0.365,0.330,0.192,0.165,��,5.3,��
2017/04/28,15:00,0.380,0.231,0.394,0.366,0.327,0.193,0.165,��,5.0,��
2017/04/28,15:10,0.377,0.231,0.397,0.366,0.332,0.191,0.165,��,5.9,��
2017/04/28,15:20,0.380,0.233,0.396,0.368,0.329,0.192,0.165,��,5.9,��
2017/04/28,15:30,0.376,0.230,0.395,0.367,0.328,0.192,0.164,��,5.9,��
2017/04/28,15:40,0.381,0.232,0.398,0.368,0.330,0.193,0.166,��,6.2,��
2017/04/28,15:50,0.377,0.231,0.397,0.367,0.329,0.192,0.166,��,7.0,��
2017/04/28,16:00,0.381,0.233,0.397,0.366,0.332,0.193,0.166,��,7.5,��
2017/04/28,16:10,0.377,0.232,0.399,0.367,0.327,0.192,0.166,��,8.1,��
2017/04/28,16:20,0.381,0.232,0.398,0.365,0.331,0.192,0.166,��,7.4,��
2017/04/28,16:30,0.378,0.233,0.399,0.368,0.330,0.192,0.165,��,7.5,��
2017/04/28,16:40,0.381,0.232,0.397,0.366,0.333,0.194,0.167,��,5.8,�L
2017/04/28,16:50,0.378,0.232,0.399,0.367,0.331,0.192,0.168,��쐼,6.2,�L
2017/04/28,17:00,0.383,0.233,0.398,0.366,0.334,0.194,0.168,��,7.3,��
2017/04/28,17:10,0.378,0.233,0.399,0.368,0.331,0.193,0.168,��,7.4,��
2017/04/28,17:20,0.381,0.233,0.396,0.368,0.332,0.193,0.167,��,7.1,��
2017/04/28,17:30,0.380,0.233,0.397,0.366,0.332,0.193,0.167,��,7.3,��
2017/04/28,17:40,0.380,0.232,0.401,0.368,0.331,0.194,0.167,��,7.3,��
2017/04/28,17:50,0.380,0.233,0.398,0.366,0.332,0.193,0.167,��쐼,6.6,��
2017/04/28,18:00,0.378,0.232,0.399,0.368,0.331,0.193,0.166,��쐼,5.4,��
2017/04/28,18:10,0.381,0.233,0.398,0.368,0.331,0.193,0.166,��쐼,7.5,��
2017/04/28,18:20,0.380,0.232,0.397,0.366,0.330,0.193,0.167,��,7.5,��
2017/04/28,18:30,0.380,0.233,0.400,0.367,0.331,0.193,0.167,��,7.3,��
2017/04/28,18:40,0.380,0.232,0.397,0.367,0.332,0.192,0.167,��,6.8,��
2017/04/28,18:50,0.379,0.232,0.398,0.369,0.330,0.192,0.167,��쐼,6.1,��
2017/04/28,19:00,0.379,0.232,0.397,0.368,0.332,0.193,0.165,��쐼,5.8,��
2017/04/28,19:10,0.377,0.232,0.396,0.365,0.330,0.193,0.166,��쐼,5.9,��
2017/04/28,19:20,0.382,0.232,0.398,0.368,0.330,0.193,0.166,��쐼,5.3,��
2017/04/28,19:30,0.379,0.232,0.398,0.367,0.333,0.192,0.166,��쐼,6.2,��
2017/04/28,19:40,0.378,0.231,0.396,0.367,0.329,0.192,0.164,��쐼,6.6,��
2017/04/28,19:50,0.380,0.232,0.399,0.368,0.332,0.193,0.167,��쐼,6.3,��
2017/04/28,20:00,0.378,0.232,0.397,0.367,0.330,0.192,0.165,��쐼,5.0,��
2017/04/28,20:10,0.381,0.232,0.398,0.367,0.329,0.192,0.166,��쐼,5.3,��
2017/04/28,20:20,0.378,0.233,0.398,0.366,0.332,0.192,0.166,��쐼,7.4,��
2017/04/28,20:30,0.379,0.232,0.397,0.367,0.329,0.192,0.165,��쐼,6.4,��
2017/04/28,20:40,0.380,0.233,0.398,0.368,0.331,0.191,0.166,��쐼,6.6,��
2017/04/28,20:50,0.379,0.234,0.398,0.367,0.332,0.193,0.165,��쐼,6.5,��
2017/04/28,21:00,0.382,0.233,0.396,0.367,0.328,0.192,0.165,��,3.6,��
2017/04/28,21:10,0.378,0.232,0.397,0.369,0.330,0.192,0.166,��쐼,1.1,��
2017/04/28,21:20,0.379,0.232,0.398,0.365,0.331,0.193,0.167,��쐼,3.6,��
2017/04/28,21:30,0.381,0.233,0.397,0.368,0.331,0.192,0.165,��쐼,4.4,��
2017/04/28,21:40,0.379,0.233,0.400,0.368,0.332,0.192,0.167,��쐼,2.0,��
2017/04/28,21:50,0.380,0.232,0.397,0.366,0.330,0.192,0.167,��쐼,3.8,��
2017/04/28,22:00,0.379,0.232,0.397,0.367,0.330,0.193,0.166,��쐼,2.7,��
2017/04/28,22:10,0.378,0.232,0.400,0.368,0.331,0.192,0.166,��쐼,2.5,��
2017/04/28,22:20,0.382,0.234,0.398,0.366,0.331,0.192,0.166,��쐼,1.9,��
2017/04/28,22:30,0.379,0.232,0.398,0.368,0.330,0.193,0.167,��,1.8,��
2017/04/28,22:40,0.379,0.231,0.399,0.367,0.332,0.192,0.167,��,1.5,��
2017/04/28,22:50,0.381,0.231,0.399,0.366,0.330,0.193,0.166,��쓌,2.1,��
2017/04/28,23:00,0.381,0.233,0.397,0.367,0.330,0.192,0.166,��쓌,1.9,��
2017/04/28,23:10,0.379,0.233,0.399,0.368,0.333,0.192,0.167,��,2.6,��
2017/04/28,23:20,0.381,0.233,0.398,0.367,0.331,0.193,0.166,��,3.0,��
2017/04/28,23:30,0.379,0.233,0.398,0.367,0.331,0.192,0.166,��쐼,2.2,��
2017/04/28,23:40,0.378,0.233,0.399,0.367,0.333,0.194,0.166,�쐼,3.0,��
2017/04/28,23:50,0.382,0.233,0.400,0.368,0.331,0.193,0.167,��쐼,3.3,��
